This demonstration page uses our WeatherBlox Daily Observations layout. Learn more.

Hourly Observations for January 18, 2020

Temp ( °F °C ) Dew Point ( °F °C ) Humidity (%) Winds ( mph kmh ) Pressure ( in mb ) Visibility ( mi km ) Precip ( " mm )
12:35 am 00:35 Cloudy with Mist and Fog 34 1.1 32 0 92 92 WNW 8 13 29.86 1011 10 16.0934 0 0
12:54 am 00:54 Cloudy with Mist and Fog 35 1.7 32 0 89 89 W 13 20 29.85 1011 10 16.0934 0 0
1:18 am 01:18 Cloudy with Mist and Fog 35 1.7 32 0 89 89 WNW 13 20 29.87 1012 10 16.0934 0 0
1:54 am 01:54 Cloudy with Mist and Fog 32 0 27 -2.8 82 82 NW 26 43 29.88 1012 10 16.0934 0 0
2:08 am 02:08 Cloudy with Mist and Fog 27 -2.8 22 -5.6 81 81 NNW 30 48 29.95 1014 1.5 2.41401 0 0
2:33 am 02:33 Cloudy with Mist and Fog 23 -5 17 -8.3 78 78 NW 31 50 30.01 1016 2 3.21868 0 0
2:54 am 02:54 Cloudy with Mist and Fog 21 -6.1 14 -10 74 74 NW 26 43 30.01 1016 7 11.26538 0 0
3:02 am 03:02 Cloudy with Mist and Fog 20 -6.7 13 -10.6 74 74 NW 29 46 30.06 1018 9 14.48406 0 0
3:54 am 03:54 Cloudy with Mist and Fog 20 -6.7 12 -11.1 71 71 NW 21 33 30.06 1018 10 16.0934 0 0
4:07 am 04:07 Cloudy with Mist and Fog 19 -7.2 10 -12.2 68 68 NW 31 50 30.13 1020 10 16.0934 0 0
4:54 am 04:54 Mostly Cloudy with Mist and Fog 18 -7.8 9 -12.8 68 68 NW 26 43 30.13 1020 10 16.0934 0 0
5:54 am 05:54 Mostly Clear with Mist and Fog 16 -8.9 6 -14.4 65 65 NW 22 35 30.19 1022 10 16.0934 0 0
6:54 am 06:54 Mostly Clear with Mist and Fog 15 -9.4 5 -15 64 64 NW 23 37 30.23 1024 10 16.0934 0 0
7:54 am 07:54 Sunny 14 -10 3 -16.1 61 61 NW 20 31 30.27 1025 10 16.0934 0 0
8:54 am 08:54 Sunny 14 -10 3 -16.1 61 61 NW 23 37 30.32 1027 10 16.0934 0 0
9:54 am 09:54 Sunny 15 -9.4 4 -15.6 61 61 NW 15 24 30.37 1028 10 16.0934 0 0
10:54 am 10:54 Sunny 17 -8.3 3 -16.1 54 54 NW 18 30 30.37 1028 10 16.0934 0 0
11:54 am 11:54 Sunny 19 -7.2 5 -15 54 54 NW 23 37 30.38 1029 10 16.0934 0 0
12:54 pm 12:54 Sunny 19 -7.2 7 -13.9 59 59 NW 16 26 30.37 1028 10 16.0934 0 0
1:54 pm 13:54 Sunny 21 -6.1 8 -13.3 57 57 WNW 18 30 30.36 1028 10 16.0934 0 0
2:54 pm 14:54 Sunny 23 -5 8 -13.3 53 53 NW 20 31 30.39 1029 10 16.0934 0 0
3:54 pm 15:54 Sunny 23 -5 9 -12.8 55 55 WNW 12 19 30.4 1030 10 16.0934 0 0
4:54 pm 16:54 Sunny 24 -4.4 11 -11.7 57 57 WNW 10 17 30.4 1030 10 16.0934 0 0
5:54 pm 17:54 Clear 23 -5 12 -11.1 63 63 Calm 30.41 1030 10 16.0934 0 0
6:54 pm 18:54 Clear 21 -6.1 12 -11.1 68 68 NW 6 9 30.43 1031 10 16.0934 0 0
7:54 pm 19:54 Clear 16 -8.9 10 -12.2 77 77 NNW 6 9 30.45 1031 10 16.0934 0 0
8:54 pm 20:54 Clear 14 -10 9 -12.8 80 80 NNW 7 11 30.48 1032 10 16.0934 0 0
9:54 pm 21:54 Clear 11 -11.7 4 -15.6 73 73 N 6 9 30.51 1033 10 16.0934 0 0
10:54 pm 22:54 Clear 11 -11.7 3 -16.1 70 70 NNW 8 13 30.51 1033 10 16.0934 0 0
11:54 pm 23:54 Clear 13 -10.6 2 -16.7 61 61 NNW 12 19 30.52 1034 10 16.0934 0 0

Powered by AerisWeather